Weather History for MMGM - November, 2013

Change the Weather History Date:

Thursday, November 7, 2013

  Actual Average Record
Temperature  
Mean Temperature 78 °F -  
Max Temperature 91 °F 78 °F 91 °F (2010)
Min Temperature 64 °F 56 °F 57 °F (2002)
Cooling Degree Days 12    
Growing Degree Days 28 (Base 50)    
Moisture  
Dew Point 52 °F    
Average Humidity 36    
Maximum Humidity 52    
Minimum Humidity 11    
Precipitation  
Precipitation 0.00 in - - ()
Sea Level Pressure  
Sea Level Pressure 29.94 in    
Wind  
Wind Speed 4 mph ()    
Max Wind Speed 14 mph    
Max Gust Speed -    
Visibility 10.0 miles    
Events      
Averages and records for this station are not official NWS values.
T = Trace of Precipitation, MM = Missing Value Source: Averaged Metar Reports

Daily Weather History Graph

Daily Weather History Graph

Search for Another Location

Airport or City:

Trip Planner

Search our weather history database for the weather conditions in past years. The results will help you decide how hot, cold, wet, or windy it might be!

Date:

Astronomy

Nov. 07, 2013 Rise Set
Actual Time 6:39 AM MST 5:35 PM MST
Civil Twilight 6:14 AM MST 5:59 PM MST
Nautical Twilight 5:46 AM MST 6:27 PM MST
Astronomical Twilight 5:19 AM MST 6:55 PM MST
Moon 10:46 AM MST (11/7) 9:53 PM MST (11/7)
Length of Visible Light 11h 44m
Length of Day
10h 55m
Waxing Crescent, 23% of the Moon is Illuminated
Nov 7
Waxing Crescent
Nov 9
First Quarter
Nov 17
Full
Nov 25
Last Quarter
Dec 2
New

Hourly Weather History & Observations

Time (MST) Temp. Heat Index Dew Point Humidity Pressure Visibility Wind Dir Wind Speed Gust Speed Precip Events Conditions
2:00 AM 69 °F - 50 °F 39% 29.94 in - WNW 6.7 mph - -  
5:00 AM 67 °F - 48 °F 40% 29.95 in - WNW 4.5 mph - -  
6:53 AM 64.4 °F - 46.4 °F 52% 29.93 in 10.0 mi Calm Calm - N/A   Partly Cloudy
7:40 AM 66.2 °F - 46.4 °F 49% 29.94 in 10.0 mi Calm Calm - N/A   Partly Cloudy
8:00 AM 66 °F - 49 °F 44% 30.01 in - NW 2.2 mph - -  
8:42 AM 69.8 °F - 48.2 °F 46% 29.96 in 10.0 mi Calm Calm - N/A   Partly Cloudy
9:40 AM 80.6 °F - 46.4 °F 30% 29.96 in 10.0 mi Calm Calm - N/A   Partly Cloudy
10:40 AM 86.0 °F - 44.6 °F 23% 29.96 in 10.0 mi Calm Calm - N/A   Partly Cloudy
11:00 AM 91 °F - 43 °F 11% 30.02 in - East 2.2 mph - -  
11:45 AM 87.8 °F 86.1 °F 55.4 °F 33% 29.94 in 10.0 mi Calm Calm - N/A   Clear
12:40 PM 87.8 °F 86.5 °F 57.2 °F 35% 29.92 in 10.0 mi South 5.8 mph - N/A   Clear
1:40 PM 86.0 °F 84.5 °F 55.4 °F 35% 29.90 in 10.0 mi SSW 13.8 mph - N/A   Partly Cloudy
2:00 PM 88 °F - 50 °F 17% 29.95 in - SSW 8.9 mph - -  
2:46 PM 86.0 °F 84.2 °F 53.6 °F 33% 29.88 in 10.0 mi SSW 5.8 mph - N/A   Partly Cloudy
3:42 PM 86.0 °F 84.2 °F 53.6 °F 33% 29.88 in 10.0 mi South 8.1 mph - N/A   Clear
4:40 PM 84.2 °F 82.8 °F 53.6 °F 35% 29.89 in 10.0 mi South 8.1 mph - N/A   Clear
5:00 PM 85 °F - 55 °F 26% 29.94 in - WSW 4.5 mph - -  
5:41 PM 82.4 °F 81.7 °F 55.4 °F 39% 29.89 in 10.0 mi SSW 9.2 mph - N/A   Clear
6:43 PM 80.6 °F 81.5 °F 60.8 °F 51% 29.91 in 10.0 mi SSW 5.8 mph - N/A   Clear
8:00 PM 74 °F - 54 °F 40% 29.98 in - West 2.2 mph - -  
11:00 PM 71 °F - 56 °F 50% 30.01 in - NNE 4.5 mph - -